Total_Precipitation_Accumulation
1.89 2.11 2.72 2.64 2.65 2.80 2.92 2.93 3.02 2.97 2.92 3.11 3.31 3.44 3.50 3.83 4.00 4.19 4.32 4.75 5.29 5.61 5.93 6.32 6.08 5.60 5.42 5.15 4.79 4.35 4.03 3.83 3.72 3.60 3.50 3.25 3.10 3.15 3.37 3.54 3.36 2.54 2.46
1.49 1.82 2.44 2.56 2.57 2.53 2.51 2.49 2.61 2.81 2.86 2.87 3.18 3.54 3.54 3.84 4.05 4.09 4.47 4.95 5.38 5.52 5.59 5.78 5.67 5.19 5.00 4.66 4.22 3.83 3.71 3.72 3.92 3.99 3.88 3.46 3.43 3.51 3.56 3.37 3.40 2.52 2.39
1.29 1.60 1.99 2.34 2.35 2.25 2.14 2.28 2.42 2.49 2.62 2.73 3.11 3.58 3.55 3.75 4.02 4.15 4.56 4.95 5.22 5.34 5.28 5.36 5.22 4.80 4.57 4.08 3.59 3.46 3.54 3.72 4.08 4.48 4.33 3.20 2.87 3.33 3.31 3.06 2.84 2.50 2.38
1.31 1.56 1.82 2.05 2.07 2.04 1.98 2.17 2.40 2.50 2.62 2.78 3.07 3.51 3.58 3.74 3.96 4.22 4.58 4.68 5.00 5.14 5.15 4.92 4.58 4.31 4.01 3.62 3.46 3.49 3.56 3.67 4.17 4.63 4.10 2.80 2.26 2.65 2.77 2.66 2.65 2.31 2.21
1.19 1.43 1.82 1.89 1.91 1.95 2.08 2.38 2.56 2.61 2.72 2.92 3.09 3.41 3.67 3.77 3.81 4.20 4.55 4.56 4.68 4.66 4.56 4.29 4.10 3.98 3.59 3.36 3.43 3.46 3.58 3.92 4.25 3.94 3.00 2.74 2.72 2.74 2.55 2.52 2.51 2.19 1.98
1.04 1.20 1.62 1.77 1.66 1.78 2.20 2.45 2.46 2.51 2.62 2.85 3.11 3.37 3.58 3.58 3.76 4.14 4.26 4.22 4.11 4.14 4.12 4.13 4.09 3.89 3.44 3.25 3.35 3.47 3.69 3.77 3.42 2.47 2.21 2.25 2.36 2.61 2.52 2.62 2.46 2.19 1.99
1.06 1.15 1.40 1.60 1.54 1.70 2.05 2.35 2.37 2.37 2.52 2.75 3.04 3.23 3.39 3.50 3.74 3.93 3.79 3.77 3.76 3.68 3.75 3.97 4.10 3.84 3.62 3.62 3.61 3.61 3.47 3.45 2.61 1.94 2.10 2.29 2.10 2.12 2.19 2.58 2.51 2.22 1.99
0.95 0.97 1.15 1.50 1.56 1.66 1.87 2.21 2.43 2.38 2.41 2.55 2.68 2.93 3.05 3.18 3.36 3.44 3.60 3.79 3.75 3.52 3.47 3.61 3.80 3.86 4.06 4.14 3.95 3.60 3.37 3.04 2.08 1.87 1.93 1.93 1.77 1.80 1.93 2.29 2.40 2.41 2.35
0.89 0.94 1.10 1.30 1.42 1.65 2.03 2.30 2.48 2.51 2.57 2.57 2.60 2.88 3.01 3.18 3.16 3.21 3.44 3.62 3.56 3.58 3.42 3.23 3.13 3.10 3.40 3.53 3.30 3.07 3.19 3.05 2.19 1.97 1.75 1.60 1.45 1.58 1.91 2.10 2.21 2.43 2.54
1.08 1.07 1.21 1.33 1.32 1.38 1.74 2.33 2.59 2.72 2.85 2.91 2.98 3.13 3.32 3.62 3.62 3.51 3.26 3.21 3.29 3.35 3.42 3.05 2.82 2.63 2.72 2.62 2.51 2.55 2.74 2.48 2.26 2.09 1.94 1.70 1.54 1.72 2.03 2.11 2.07 2.12 2.13
1.47 1.37 1.41 1.32 1.28 1.34 1.51 1.95 2.40 2.76 3.13 3.36 3.36 3.28 3.41 3.72 3.82 3.87 3.46 3.68 3.59 3.48 3.47 3.16 2.91 2.59 2.52 2.32 2.33 2.56 2.30 1.94 2.09 2.06 1.97 1.84 1.78 2.05 2.31 2.28 2.19 2.07 1.95
1.88 1.59 1.51 1.39 1.37 1.35 1.33 1.69 2.16 2.30 2.73 3.03 3.10 3.07 3.26 3.60 3.88 3.53 3.98 4.26 4.17 4.03 3.75 3.51 3.40 2.88 2.45 2.32 2.75 2.98 2.00 1.74 1.74 1.73 1.78 1.76 2.09 2.48 2.66 2.42 2.23 2.18 2.08
1.80 1.90 1.88 1.72 1.66 1.68 1.87 1.76 2.04 2.38 2.64 2.67 2.65 2.90 3.32 3.33 3.47 3.39 3.67 4.22 4.34 4.33 4.00 3.83 3.69 3.06 2.88 3.13 3.17 2.81 2.18 2.04 1.95 1.92 2.03 2.16 2.43 2.86 3.04 2.73 2.58 2.46 2.37
2.11 2.38 2.53 2.24 2.28 2.25 2.07 1.97 2.06 2.24 2.45 2.62 2.92 2.98 3.13 3.52 3.76 3.61 3.60 3.73 4.04 4.18 4.42 4.12 3.93 3.63 3.43 3.33 3.20 2.82 2.55 2.48 2.46 2.58 2.80 2.50 2.53 2.91 3.17 3.07 3.02 2.89 2.74
2.72 3.01 3.22 2.82 2.79 2.73 2.75 2.71 2.46 2.57 2.66 2.85 3.12 3.30 3.36 3.70 4.00 4.00 3.82 3.74 3.62 3.59 3.85 4.06 3.87 3.93 3.79 3.55 3.23 2.92 2.78 2.63 2.52 2.65 2.81 2.92 2.89 2.98 3.32 3.53 3.48 3.29 3.19
3.14 3.33 3.50 3.41 3.47 3.38 3.20 3.33 3.31 2.91 3.01 3.03 3.16 3.29 3.45 3.69 4.22 4.41 4.20 4.08 3.69 3.48 3.49 3.79 3.87 4.10 4.00 3.76 3.13 2.95 2.88 2.81 2.76 2.64 2.81 3.38 3.47 3.11 3.22 3.59 3.86 3.95 3.83
3.97 3.93 3.98 3.97 4.28 4.19 3.83 3.54 3.28 3.11 3.08 3.31 3.39 3.48 3.52 3.77 4.31 4.37 4.13 3.73 3.40 3.29 3.51 3.60 3.68 3.95 3.74 3.57 3.41 3.32 3.23 3.09 2.94 2.85 2.93 3.48 3.47 3.16 3.10 3.22 3.58 3.96 4.16
4.81 4.74 4.56 4.14 4.55 4.62 4.38 4.19 3.82 3.57 3.62 3.64 3.38 3.52 3.46 3.64 3.63 3.77 3.51 3.19 3.24 3.33 3.49 3.72 3.66 3.78 3.78 3.79 3.84 3.72 3.49 3.31 2.88 2.66 2.57 2.76 3.05 2.76 3.02 3.30 3.45 3.64 4.14
5.27 5.50 5.46 5.34 5.12 4.93 4.75 4.63 4.46 4.32 4.04 3.67 3.51 3.63 3.36 3.03 2.87 3.13 3.16 3.17 3.06 3.21 3.27 3.04 3.45 3.77 3.82 3.80 3.48 3.54 3.13 3.01 2.82 2.47 2.42 2.41 2.60 2.78 2.88 2.99 3.29 3.37 3.85
5.18 5.77 5.96 6.06 5.80 5.36 4.88 4.53 4.48 4.27 4.03 3.75 3.51 3.54 3.12 2.88 2.72 3.08 3.06 3.03 2.98 3.17 3.30 3.35 3.64 3.81 3.50 3.47 3.11 3.05 2.82 2.45 2.46 2.41 2.23 2.32 2.46 2.38 2.61 2.86 3.26 3.07 3.59
4.72 5.46 5.62 5.98 5.59 5.00 4.46 4.03 3.92 3.77 3.48 3.38 3.24 3.19 3.14 2.95 2.91 3.17 3.00 3.15 2.97 3.04 3.05 3.09 3.36 3.51 3.14 3.20 3.69 3.31 2.70 2.28 2.30 2.19 2.20 2.30 2.33 2.41 2.71 3.08 3.33 3.43 3.44
4.07 4.84 4.93 4.64 4.49 4.11 3.77 3.62 3.47 3.43 3.09 2.96 2.87 3.01 2.82 2.71 2.84 2.86 3.03 2.85 2.78 2.97 3.00 3.07 3.35 3.27 2.96 3.18 3.75 3.92 3.37 2.94 2.58 2.13 2.15 2.18 2.25 2.53 2.65 2.76 3.26 3.62 3.61
3.72 3.85 3.54 3.40 3.51 3.48 3.33 3.26 3.16 3.17 2.98 2.79 2.70 2.80 2.67 2.47 2.55 2.60 2.58 2.62 2.77 2.51 2.78 3.09 3.20 3.24 3.20 3.10 3.33 3.87 3.74 3.33 2.92 2.50 2.28 2.34 2.52 2.70 2.80 3.00 3.11 3.38 3.62
2.90 2.78 2.80 2.85 2.94 3.15 3.14 2.96 2.81 2.58 2.53 2.52 2.47 2.56 2.67 2.41 2.26 2.26 2.28 2.51 2.65 2.61 2.94 2.64 2.78 3.07 3.33 3.11 3.09 3.10 3.20 3.46 3.46 3.07 2.63 2.44 2.49 2.61 2.73 2.78 2.93 3.29 3.60
2.19 2.26 2.29 2.68 2.83 2.84 2.85 2.85 2.91 2.63 2.49 2.50 2.64 2.87 2.84 2.49 2.13 1.98 2.15 2.41 2.57 2.64 2.73 2.68 2.80 2.79 2.86 2.86 2.94 2.95 3.14 3.44 3.24 3.12 2.98 2.79 2.61 2.44 2.52 2.66 2.88 3.24 3.35
1.54 1.67 1.84 2.21 2.48 2.54 2.49 2.50 2.56 2.60 2.64 2.49 2.51 2.63 2.57 2.43 2.26 2.06 2.11 2.40 2.52 2.58 2.65 2.69 2.68 2.58 2.65 2.75 2.81 2.85 3.06 3.12 3.13 3.22 3.00 2.78 2.67 2.45 2.40 2.52 2.71 2.84 2.91